GW5221 Weather Reports


Display with metric or nautical units.
time (UTC)temp
F
wind
direction
speed
MPH
gust
MPH
rain 1hr
in
rain 24hr
in
rain mn
in
humidity
%
barometer
mb
20260507121323 86 102 2.0 4.0 0.00 0.00 0.00 73 1019.8
20260507120820 85 311 2.0 6.0 0.00 0.00 0.00 74 1020.0
20260507120316 86 173 2.0 10.0 0.00 0.00 0.00 73 1019.8
20260507115812 85 41 2.0 2.0 0.00 0.00 0.00 75 1020.0
20260507115308 84 14 2.0 6.0 0.00 0.00 0.00 76 1019.5
20260507114804 84 248 4.0 7.0 0.00 0.00 0.00 77 1019.8
20260507114301 84 345 3.0 6.0 0.00 0.00 0.00 77 1019.7
20260507113759 83 81 2.0 3.0 0.00 0.00 0.00 78 1019.8
20260507113255 83 347 1.0 3.0 0.00 0.00 0.00 78 1019.6
20260507112753 83 352 2.0 8.0 0.00 0.00 0.00 79 1019.7
20260507112250 82 305 2.0 6.0 0.00 0.00 0.00 80 1019.5
20260507111748 82 98 1.0 4.0 0.00 0.00 0.00 80 1019.5
20260507111244 82 328 3.0 6.0 0.00 0.00 0.00 80 1019.6
20260507110740 82 49 1.0 4.0 0.00 0.00 0.00 80 1019.4
20260507110237 82 333 1.0 3.0 0.00 0.00 0.00 81 1019.5
20260507105734 82 348 0.0 2.0 0.00 0.00 0.00 81 1019.7
20260507105230 82 314 2.0 6.0 0.00 0.00 0.00 81 1019.5
20260507104727 82 296 2.0 4.0 0.00 0.00 0.00 81 1019.3
20260507104224 82 38 1.0 4.0 0.00 0.00 0.00 81 1019.5
20260507103720 82 185 3.0 6.0 0.00 0.00 0.00 82 1019.2
20260507103216 81 18 1.0 4.0 0.00 0.00 0.00 82 1019.2
20260507102713 81 181 3.0 3.0 0.00 0.00 0.00 82 1019.1
20260507102209 81 303 1.0 4.0 0.00 0.00 0.00 82 1019.2
20260507101705 81 342 2.0 3.0 0.00 0.00 0.00 82 1019.2
20260507101201 81 6 2.0 8.0 0.00 0.00 0.00 82 1018.9
20260507100658 81 154 1.0 4.0 0.00 0.00 0.00 82 1019.1
20260507100157 82 347 1.0 1.0 0.00 0.00 0.00 82 1019.1
20260507095654 82 86 2.0 8.0 0.00 0.00 0.00 82 1018.9
20260507095151 81 341 2.0 6.0 0.00 0.00 0.00 82 1019.1
20260507094647 81 333 1.0 3.0 0.00 0.00 0.00 82 1018.9
20260507094144 81 309 3.0 4.0 0.00 0.00 0.00 82 1019.1
20260507093641 81 253 1.0 4.0 0.00 0.00 0.00 82 1019.0
20260507093141 81 329 1.0 6.0 0.00 0.00 0.00 82 1018.8
20260507092636 81 305 1.0 3.0 0.00 0.00 0.00 81 1018.7
20260507092133 81 339 1.0 6.0 0.00 0.00 0.00 81 1018.7
20260507091629 81 342 2.0 4.0 0.00 0.00 0.00 82 1018.8
20260507091125 81 329 1.0 3.0 0.00 0.00 0.00 82 1018.7
20260507090621 81 298 2.0 4.0 0.00 0.00 0.00 81 1018.6
20260507090119 81 355 1.0 4.0 0.00 0.00 0.00 81 1018.7
20260507085616 81 250 1.0 2.0 0.00 0.00 0.00 81 1018.6
20260507085112 81 88 3.0 3.0 0.00 0.00 0.00 81 1018.5
20260507084609 81 307 1.0 3.0 0.00 0.00 0.00 81 1018.6
20260507084106 81 59 2.0 3.0 0.00 0.00 0.00 81 1018.6
20260507083602 81 293 0.0 6.0 0.00 0.00 0.00 81 1018.5
20260507083100 82 175 1.0 3.0 0.00 0.00 0.00 81 1018.3
20260507082555 82 342 1.0 4.0 0.00 0.00 0.00 81 1018.5
20260507082052 82 358 1.0 7.0 0.00 0.00 0.00 81 1018.4
20260507081548 81 257 2.0 2.0 0.00 0.00 0.00 81 1018.4
20260507081045 81 346 1.0 4.0 0.00 0.00 0.00 80 1018.3
20260507080541 82 334 1.0 6.0 0.00 0.00 0.00 81 1018.4
20260507080038 82 27 1.0 3.0 0.00 0.00 0.00 81 1018.4
20260507075533 82 20 2.0 3.0 0.00 0.00 0.00 81 1018.5
20260507075030 81 312 3.0 6.0 0.00 0.00 0.00 80 1018.4
20260507074526 82 9 1.0 4.0 0.00 0.00 0.00 81 1018.3
20260507074025 82 253 3.0 4.0 0.00 0.00 0.00 80 1018.2
20260507073521 82 41 2.0 6.0 0.00 0.00 0.00 80 1018.3
20260507073018 82 29 1.0 3.0 0.00 0.00 0.00 80 1018.3
20260507072515 81 348 1.0 4.0 0.00 0.00 0.00 80 1018.3
20260507072012 81 346 1.0 4.0 0.00 0.00 0.00 80 1018.3
20260507071509 81 73 0.0 7.0 0.00 0.00 0.00 81 1018.5
20260507071006 81 103 2.0 2.0 0.00 0.00 0.00 81 1018.3
20260507070503 81 3 1.0 6.0 0.00 0.00 0.00 81 1018.6
20260507070000 81 356 3.0 4.0 0.00 0.00 0.00 81 1018.5
20260507065456 81 175 2.0 4.0 0.00 0.00 0.00 81 1018.3
20260507064953 81 206 1.0 3.0 0.00 0.00 0.00 81 1018.3
20260507064452 81 154 2.0 4.0 0.00 0.00 0.00 81 1018.6
20260507063949 81 348 2.0 3.0 0.00 0.00 0.00 81 1018.6
20260507063446 81 337 1.0 2.0 0.00 0.00 0.00 81 1018.7
20260507062943 82 345 2.0 6.0 0.00 0.00 0.00 81 1018.7
20260507062440 82 315 1.0 2.0 0.00 0.00 0.00 81 1018.7
20260507061937 82 345 1.0 6.0 0.00 0.00 0.00 81 1018.9
20260507061435 82 3 1.0 3.0 0.00 0.00 0.00 81 1018.8
20260507060934 82 351 1.0 6.0 0.00 0.00 0.00 81 1018.8
20260507060430 82 128 4.0 6.0 0.00 0.00 0.00 81 1019.0
20260507055927 82 3 1.0 2.0 0.00 0.00 0.00 80 1019.0
20260507055422 82 6 3.0 4.0 0.00 0.00 0.00 80 1019.1
20260507054919 82 343 1.0 3.0 0.00 0.00 0.00 80 1019.0
20260507054415 82 249 2.0 3.0 0.00 0.00 0.00 80 1019.0
20260507053913 81 52 1.0 3.0 0.00 0.00 0.00 80 1019.2
20260507053410 81 84 3.0 7.0 0.00 0.00 0.00 80 1019.2
20260507052909 81 21 1.0 3.0 0.00 0.00 0.00 80 1019.2
20260507052406 81 14 2.0 4.0 0.00 0.00 0.00 80 1019.1
20260507051903 81 345 0.0 1.0 0.00 0.00 0.00 80 1019.2
20260507051400 81 346 0.0 4.0 0.00 0.00 0.00 80 1019.2
20260507050857 81 73 1.0 1.0 0.00 0.00 0.00 80 1019.4
20260507050354 82 170 0.0 2.0 0.00 0.00 0.00 80 1019.4
20260507045850 82 294 1.0 3.0 0.00 0.00 0.00 80 1019.4
20260507045347 82 73 0.0 3.0 0.00 0.00 0.00 79 1019.4
20260507044844 82 349 2.0 6.0 0.00 0.00 0.00 79 1019.5
20260507044341 82 6 1.0 4.0 0.00 0.00 0.00 79 1019.5
20260507043837 82 312 1.0 4.0 0.00 0.00 0.00 79 1019.4
20260507043334 82 1 1.0 6.0 0.00 0.00 0.00 79 1019.5
20260507042830 82 344 0.0 3.0 0.00 0.00 0.00 79 1019.6
20260507042325 82 102 3.0 4.0 0.00 0.00 0.00 79 1019.9
20260507041823 82 9 1.0 7.0 0.00 0.00 0.00 79 1019.6
20260507041319 82 225 1.0 1.0 0.00 0.00 0.00 79 1020.0
20260507040816 82 347 0.0 4.0 0.00 0.00 0.00 79 1020.0
20260507040312 82 356 1.0 2.0 0.00 0.00 0.00 79 1019.9
20260507035808 82 31 3.0 4.0 0.00 0.00 0.00 79 1019.9
20260507035306 82 55 1.0 7.0 0.00 0.00 0.00 79 1019.9
20260507034802 82 80 4.0 8.0 0.00 0.00 0.00 79 1019.9
20260507034258 82 33 1.0 3.0 0.00 0.00 0.00 79 1019.9
20260507033757 82 355 2.0 4.0 0.00 0.00 0.00 79 1019.7
20260507033254 82 348 0.0 2.0 0.00 0.00 0.00 79 1019.9
20260507032751 82 355 1.0 3.0 0.00 0.00 0.00 79 1019.9
20260507032247 82 346 1.0 1.0 0.00 0.00 0.00 79 1020.1
20260507031743 82 348 1.0 6.0 0.00 0.00 0.00 79 1019.9
20260507031241 82 28 0.0 4.0 0.00 0.00 0.00 79 1020.1
20260507030737 82 6 2.0 2.0 0.00 0.00 0.00 79 1020.2
20260507030235 82 22 4.0 6.0 0.00 0.00 0.00 79 1020.1
20260507025732 82 40 4.0 7.0 0.00 0.00 0.00 80 1020.2
20260507025229 82 55 2.0 4.0 0.00 0.00 0.00 80 1020.0
20260507024727 82 229 1.0 3.0 0.00 0.00 0.00 80 1020.0
20260507024224 82 352 2.0 3.0 0.00 0.00 0.00 80 1019.9
20260507023719 82 342 1.0 2.0 0.00 0.00 0.00 80 1020.2
20260507023216 82 335 0.0 3.0 0.00 0.00 0.00 80 1020.2
20260507022714 82 262 1.0 2.0 0.00 0.00 0.00 80 1020.2
20260507022209 82 342 0.0 3.0 0.00 0.00 0.00 80 1020.1
20260507021706 82 352 1.0 2.0 0.00 0.00 0.00 80 1020.1
20260507021201 82 33 4.0 7.0 0.00 0.00 0.00 80 1019.8
20260507020700 82 300 2.0 6.0 0.00 0.00 0.00 80 1019.7
20260507020156 82 113 1.0 4.0 0.00 0.00 0.00 80 1019.7
20260507015654 82 90 1.0 6.0 0.00 0.00 0.00 80 1019.8
20260507015151 82 41 2.0 7.0 0.00 0.00 0.00 80 1019.7
20260507014647 82 32 3.0 4.0 0.00 0.00 0.00 80 1019.9
20260507014143 82 345 1.0 4.0 0.00 0.00 0.00 80 1019.6
20260507013641 82 88 2.0 6.0 0.00 0.00 0.00 80 1019.5
20260507013138 82 342 2.0 3.0 0.00 0.00 0.00 80 1019.4
20260507012635 82 33 1.0 3.0 0.00 0.00 0.00 81 1019.3
20260507012130 82 22 3.0 6.0 0.00 0.00 0.00 80 1019.2
20260507011629 82 69 2.0 7.0 0.00 0.00 0.00 80 1019.1
20260507011125 82 250 2.0 6.0 0.00 0.00 0.00 80 1018.9
20260507010620 82 119 5.0 10.0 0.00 0.00 0.00 80 1019.2
20260507010116 82 37 2.0 7.0 0.00 0.00 0.00 80 1018.8
20260507005613 82 97 2.0 8.0 0.00 0.00 0.00 80 1019.0
20260507005109 82 46 3.0 8.0 0.00 0.00 0.00 80 1018.7
20260507004606 82 39 3.0 6.0 0.00 0.00 0.00 80 1018.7
20260507004104 82 57 2.0 6.0 0.00 0.00 0.00 80 1018.6
20260507003600 82 350 3.0 4.0 0.00 0.00 0.00 80 1018.6
20260507003055 82 41 1.0 3.0 0.00 0.00 0.00 80 1018.4
20260507002552 82 61 3.0 8.0 0.00 0.00 0.00 80 1018.4
20260507002047 82 147 2.0 9.0 0.00 0.00 0.00 79 1018.5
20260507001544 82 345 2.0 10.0 0.00 0.00 0.00 80 1018.5
20260507001042 82 15 3.0 8.0 0.00 0.00 0.00 80 1018.4
20260507000538 82 73 2.0 8.0 0.00 0.00 0.00 80 1018.3
20260507000033 82 74 2.0 3.0 0.00 0.00 0.00 80 1018.3
20260506235531 82 352 3.0 6.0 0.00 0.00 0.00 79 1018.3
20260506235021 82 93 4.0 7.0 0.00 0.00 0.00 80 1018.2
20260506234519 82 85 3.0 9.0 0.00 0.00 0.00 80 1018.2
20260506234016 83 86 3.0 7.0 0.00 0.00 0.00 80 1018.1
20260506233513 83 335 2.0 11.0 0.00 0.00 0.00 79 1017.8
20260506233010 83 33 4.0 6.0 0.00 0.00 0.00 79 1017.9
20260506232506 83 2 0.0 7.0 0.00 0.00 0.00 79 1018.0
20260506232001 83 34 3.0 14.0 0.00 0.00 0.00 79 1017.7
20260506231458 83 34 3.0 9.0 0.00 0.00 0.00 79 1017.4
20260506230956 83 346 2.0 11.0 0.00 0.00 0.00 79 1017.5
20260506230452 83 66 3.0 8.0 0.00 0.00 0.00 79 1017.5
20260506225949 83 31 5.0 7.0 0.00 0.00 0.00 78 1017.7
20260506225447 83 54 2.0 6.0 0.00 0.00 0.00 79 1017.7
20260506224943 83 51 4.0 10.0 0.00 0.00 0.00 78 1017.4
20260506224440 83 77 5.0 10.0 0.00 0.00 0.00 78 1017.5
20260506223936 84 53 2.0 8.0 0.00 0.00 0.00 78 1017.2
20260506223432 84 45 4.0 7.0 0.00 0.00 0.00 77 1017.3
20260506222930 84 7 7.0 10.0 0.00 0.00 0.00 77 1017.1
20260506222426 84 23 2.0 9.0 0.00 0.00 0.00 76 1017.1
20260506221923 84 71 4.0 10.0 0.00 0.00 0.00 75 1017.2
20260506221420 85 58 2.0 8.0 0.00 0.00 0.00 75 1017.1
20260506220918 85 110 3.0 9.0 0.00 0.00 0.00 75 1016.8
20260506220414 85 20 4.0 6.0 0.00 0.00 0.00 74 1017.0
20260506215910 85 69 4.0 8.0 0.00 0.00 0.00 74 1017.0
20260506215406 85 93 3.0 10.0 0.00 0.00 0.00 74 1017.1
20260506214902 85 76 4.0 11.0 0.00 0.00 0.00 73 1017.1
20260506214359 85 19 4.0 9.0 0.00 0.00 0.00 73 1017.1
20260506213857 86 31 4.0 9.0 0.00 0.00 0.00 73 1017.1
20260506213354 86 87 3.0 6.0 0.00 0.00 0.00 72 1017.1
20260506212851 86 105 2.0 10.0 0.00 0.00 0.00 71 1016.9
20260506212347 86 359 4.0 7.0 0.00 0.00 0.00 71 1016.8
20260506211842 86 350 3.0 7.0 0.00 0.00 0.00 71 1016.9
20260506211338 87 69 2.0 7.0 0.00 0.00 0.00 70 1016.9
20260506210836 87 10 3.0 6.0 0.00 0.00 0.00 70 1017.0
20260506210332 87 50 2.0 4.0 0.00 0.00 0.00 71 1017.1
20260506205830 88 344 2.0 6.0 0.00 0.00 0.00 70 1017.2
20260506205325 88 8 1.0 6.0 0.00 0.00 0.00 70 1017.2
20260506204822 87 19 3.0 7.0 0.00 0.00 0.00 69 1017.1
20260506204320 88 1 1.0 13.0 0.00 0.00 0.00 69 1017.1
20260506203817 88 314 2.0 9.0 0.00 0.00 0.00 69 1017.4
20260506203314 88 80 4.0 8.0 0.00 0.00 0.00 68 1017.3
20260506202811 88 75 3.0 8.0 0.00 0.00 0.00 69 1017.5
20260506202308 88 14 1.0 7.0 0.00 0.00 0.00 69 1017.3
20260506201804 89 86 4.0 8.0 0.00 0.00 0.00 68 1017.4
20260506201302 89 292 2.0 3.0 0.00 0.00 0.00 66 1017.5
20260506200759 88 337 2.0 6.0 0.00 0.00 0.00 67 1017.5
20260506200255 88 65 5.0 8.0 0.00 0.00 0.00 67 1017.5
20260506195751 89 342 3.0 6.0 0.00 0.00 0.00 67 1017.6
20260506195247 90 126 4.0 13.0 0.00 0.00 0.00 65 1017.7
20260506194745 90 54 2.0 4.0 0.00 0.00 0.00 63 1017.4
20260506194241 90 356 1.0 7.0 0.00 0.00 0.00 64 1017.7
20260506193739 90 330 2.0 8.0 0.00 0.00 0.00 63 1017.6
20260506193236 89 357 2.0 8.0 0.00 0.00 0.00 65 1018.0
20260506192732 90 106 3.0 10.0 0.00 0.00 0.00 64 1017.6
20260506192229 89 242 1.0 7.0 0.00 0.00 0.00 65 1017.9
20260506191726 89 46 2.0 8.0 0.00 0.00 0.00 65 1017.9
20260506191222 88 6 2.0 7.0 0.00 0.00 0.00 67 1017.7
20260506190719 89 102 6.0 9.0 0.00 0.00 0.00 66 1017.8
20260506190216 89 53 3.0 7.0 0.00 0.00 0.00 66 1017.7
20260506185713 90 343 3.0 7.0 0.00 0.00 0.00 65 1017.8
20260506185209 90 0 2.0 6.0 0.00 0.00 0.00 64 1018.0
20260506184707 90 28 4.0 13.0 0.00 0.00 0.00 65 1018.2
20260506184204 90 315 1.0 6.0 0.00 0.00 0.00 64 1018.1
20260506183701 90 190 5.0 8.0 0.00 0.00 0.00 64 1018.2
20260506183156 90 346 2.0 7.0 0.00 0.00 0.00 64 1018.1
20260506182654 90 216 4.0 10.0 0.00 0.00 0.00 63 1018.3
20260506182152 91 42 4.0 11.0 0.00 0.00 0.00 63 1018.4
20260506181649 91 48 1.0 4.0 0.00 0.00 0.00 63 1018.4
20260506181146 91 0 2.0 6.0 0.00 0.00 0.00 64 1018.6
20260506180643 89 313 2.0 4.0 0.00 0.00 0.00 65 1018.6
20260506180139 89 105 2.0 4.0 0.00 0.00 0.00 64 1019.0
20260506175636 91 97 2.0 8.0 0.00 0.00 0.00 63 1019.0
20260506175132 91 110 2.0 6.0 0.00 0.00 0.00 62 1018.9
20260506174631 91 349 1.0 6.0 0.00 0.00 0.00 63 1019.1
20260506174127 91 356 2.0 10.0 0.00 0.00 0.00 63 1019.3
20260506173625 89 340 1.0 9.0 0.00 0.00 0.00 65 1019.3
20260506173121 90 350 3.0 9.0 0.00 0.00 0.00 65 1019.2
20260506172619 90 107 2.0 6.0 0.00 0.00 0.00 64 1019.4
20260506172115 90 29 4.0 7.0 0.00 0.00 0.00 64 1019.4
20260506171613 91 57 5.0 8.0 0.00 0.00 0.00 63 1019.7
20260506171111 91 265 4.0 7.0 0.00 0.00 0.00 61 1019.6
20260506170608 91 339 2.0 9.0 0.00 0.00 0.00 62 1019.8
20260506170105 91 333 2.0 14.0 0.00 0.00 0.00 63 1019.6
20260506165603 91 315 5.0 10.0 0.00 0.00 0.00 61 1020.0
20260506165059 91 340 3.0 9.0 0.00 0.00 0.00 62 1019.9
20260506164556 91 179 2.0 6.0 0.00 0.00 0.00 62 1020.0
20260506164053 90 285 3.0 10.0 0.00 0.00 0.00 64 1019.9
20260506163549 90 218 2.0 11.0 0.00 0.00 0.00 64 1020.1
20260506163046 90 356 2.0 8.0 0.00 0.00 0.00 64 1020.0
20260506162542 90 159 3.0 9.0 0.00 0.00 0.00 63 1020.2
20260506162039 90 357 2.0 13.0 0.00 0.00 0.00 63 1020.2
20260506161536 90 16 1.0 7.0 0.00 0.00 0.00 64 1020.2
20260506161033 90 322 5.0 8.0 0.00 0.00 0.00 63 1020.2
20260506160531 90 256 6.0 13.0 0.00 0.00 0.00 63 1020.4
20260506160028 91 225 6.0 8.0 0.00 0.00 0.00 63 1020.1
20260506155526 90 348 3.0 8.0 0.00 0.00 0.00 63 1020.5
20260506153657 90 318 2.0 6.0 0.00 0.00 0.00 64 1020.6
20260506153154 89 170 1.0 4.0 0.00 0.00 0.00 66 1020.6
20260506152651 89 222 3.0 7.0 0.00 0.00 0.00 66 1020.5
20260506152149 89 19 2.0 13.0 0.00 0.00 0.00 66 1020.8
20260506151648 89 79 3.0 9.0 0.00 0.00 0.00 65 1020.6
20260506151144 89 103 4.0 8.0 0.00 0.00 0.00 64 1020.8
20260506150641 90 216 5.0 7.0 0.00 0.00 0.00 64 1020.6
20260506150138 89 255 2.0 4.0 0.00 0.00 0.00 65 1020.7
20260506145635 89 339 1.0 10.0 0.00 0.00 0.00 65 1020.7
20260506145131 89 148 3.0 8.0 0.00 0.00 0.00 65 1020.8
20260506144629 90 129 4.0 10.0 0.00 0.00 0.00 64 1020.8
20260506144125 89 26 2.0 7.0 0.00 0.00 0.00 65 1020.7
20260506143623 89 300 4.0 8.0 0.00 0.00 0.00 65 1020.9
20260506143121 89 134 5.0 7.0 0.00 0.00 0.00 65 1020.8
20260506142619 89 344 2.0 7.0 0.00 0.00 0.00 65 1020.9
20260506142117 89 107 3.0 7.0 0.00 0.00 0.00 65 1020.9
20260506141614 89 306 2.0 6.0 0.00 0.00 0.00 66 1020.9
20260506141112 89 331 2.0 7.0 0.00 0.00 0.00 66 1020.8
20260506140610 88 348 3.0 6.0 0.00 0.00 0.00 66 1020.9
20260506140107 88 31 5.0 11.0 0.00 0.00 0.00 66 1020.8
20260506135603 89 27 3.0 8.0 0.00 0.00 0.00 66 1021.0
20260506135059 89 347 3.0 7.0 0.00 0.00 0.00 65 1020.8
20260506134556 88 290 4.0 8.0 0.00 0.00 0.00 67 1020.6
20260506134052 89 244 2.0 9.0 0.00 0.00 0.00 65 1020.8
20260506133549 88 317 1.0 7.0 0.00 0.00 0.00 66 1020.9
20260506133046 88 134 2.0 3.0 0.00 0.00 0.00 68 1020.8
20260506132544 87 128 3.0 7.0 0.00 0.00 0.00 68 1020.8
20260506132041 87 28 5.0 10.0 0.00 0.00 0.00 68 1020.8
20260506131538 87 177 4.0 7.0 0.00 0.00 0.00 70 1020.9
20260506131034 87 33 2.0 13.0 0.00 0.00 0.00 72 1020.8
20260506130531 86 355 2.0 6.0 0.00 0.00 0.00 72 1020.8
20260506130029 86 339 1.0 3.0 0.00 0.00 0.00 73 1021.0
20260506125527 86 223 3.0 6.0 0.00 0.00 0.00 73 1021.0
20260506125024 85 150 6.0 14.0 0.00 0.00 0.00 74 1020.8
20260506124522 85 263 3.0 9.0 0.00 0.00 0.00 73 1020.7
20260506124020 85 19 3.0 7.0 0.00 0.00 0.00 72 1020.8
20260506123517 85 69 5.0 8.0 0.00 0.00 0.00 72 1020.9
20260506123015 85 67 6.0 8.0 0.00 0.00 0.00 73 1020.7
20260506122512 85 154 4.0 6.0 0.00 0.00 0.00 73 1020.7
20260506122010 85 307 1.0 7.0 0.00 0.00 0.00 73 1020.6
20260506121507 85 345 2.0 7.0 0.00 0.00 0.00 74 1020.7